Regional Weather Roundup
Issued by NWS

Home | Current Version | Previous Version | Graphics & Text | Print | Product List | Glossary On
Versions: 1 2 3 4 5 6 7 8 9 10 11 12 13 14 15 16 17 18 19 20 21 22 23 24 25 26 27 28 29 30 31 32 33 34 35 36 37 38 39 40 41 42 43 44 45 46 47 48 49 50
000
ASUS43 KOAX 262202
RWRNE

WEATHER ROUNDUP FOR NEBRASKA
NATIONAL WEATHER SERVICE OMAHA NE
500 PM CDT FRI AUG 26 2016

NOTES: SATELLITE DATA IS BEING USED TO AUGMENT CLOUD COVER ABOVE
       12000 FEET.
       "FAIR" INDICATES FEW OR NO CLOUDS BELOW 12,000 FEET WITH NO
       SIGNIFICANT WEATHER AND/OR OBSTRUCTIONS TO VISIBILITY.

  * THESE STATIONS DO NOT REPORT WEATHER SUCH AS RAIN...SNOW OR FOG.

NEZ001>004-019>022-054>056-262300-
NEBRASKA PANHANDLE

CITY           SKY/WX    TMP DP  RH WIND       PRES   REMARKS
SCOTTSBLUFF    CLOUDY    68  53  58 SE15      30.06R
ALLIANCE       SUNNY     69  49  48 SE10      30.06F
CHADRON        MOSUNNY   71  53  52 S5        30.01F
SIDNEY         CLOUDY    68  57  68 SE9       30.09R
$$

NEZ057>060-069>072-079>082-262300-
SOUTHWEST NEBRASKA

CITY           SKY/WX    TMP DP  RH WIND       PRES   REMARKS
NORTH PLATTE   LGT RAIN  67  59  75 S5        30.09R
IMPERIAL       LGT RAIN  62  59  90 NE9       30.08R FOG
LEXINGTON      CLOUDY    72  57  59 E9        30.07S
MCCOOK         LGT RAIN  70  59  68 N7        30.05F
OGALLALA       CLOUDY    61  57  87 E6        30.07F
$$

NEZ005>010-023>029-035>040-094-262300-
NORTH CENTRAL NEBRASKA

CITY           SKY/WX    TMP DP  RH WIND       PRES   REMARKS
VALENTINE      LGT RAIN  61  58  90 E13       30.08F
AINSWORTH      LGT RAIN  69  56  63 SE3       30.09F
BROKEN BOW     CLOUDY    69  57  65 E7        30.07F
O`NEILL        CLOUDY    74  52  46 E8        30.09F
ORD            CLOUDY    72  55  55 E10       30.06F
THEDFORD       LGT RAIN  62  59  93 N10       30.11S
$$

NEZ041-046>049-061>064-073>077-083>087-262300-
SOUTH CENTRAL NEBRASKA

CITY           SKY/WX    TMP DP  RH WIND       PRES   REMARKS
GRAND ISLAND   CLOUDY    70  60  70 E9        30.06F
AURORA         CLOUDY    65  65  97 E7        30.06F FOG
HASTINGS       CLOUDY    69  62  78 SE10      30.06S
HEBRON         PTSUNNY   72  65  80 CALM      30.03F
HOLDREGE       PTSUNNY   73  57  58 E5        30.06F
KEARNEY *      CLOUDY    72  55  56 E7        30.05F
YORK           CLOUDY    64  63  94 E7        30.06F FOG
$$

NEZ011>018-030>034-042>045-262300-
NORTHEAST NEBRASKA

CITY           SKY/WX    TMP DP  RH WIND       PRES   REMARKS
NORFOLK        CLOUDY    71  58  63 E9        30.07F
ALBION         CLOUDY    71  59  67 E7        30.07F
BLAIR          CLOUDY    69  64  84 E5        30.08S
FREMONT        CLOUDY    67  59  74 E5        30.08F
TEKAMAH        LGT RAIN  68  60  75 SE7       30.09S
WAYNE          CLOUDY    70  63  78 SE6       30.10F
$$

NEZ050>053-065>068-078-088>093-262300-
SOUTHEAST NEBRASKA

CITY           SKY/WX    TMP DP  RH WIND       PRES   REMARKS
LINCOLN        CLOUDY    70  64  81 NE7       30.06F
OMAHA EPPLEY   CLOUDY    71  61  70 SE7       30.07S
FALLS CITY     CLOUDY    74  69  85 E8        30.01F
NEBRASKA CITY  RAIN      68  68 100 NE6       30.04F
PLATTSMOUTH    CLOUDY    70  64  81 E6        30.06F
$$

NEZ044-045-051>053-067-262300-
OMAHA AREA

CITY           SKY/WX    TMP DP  RH WIND       PRES   REMARKS
OMAHA EPPLEY   CLOUDY    71  61  70 SE7       30.07S
BLAIR          CLOUDY    69  64  84 E5        30.08S
FREMONT        CLOUDY    67  59  74 E5        30.08F
MILLARD        CLOUDY    71  62  72 SE6       30.06S
OFFUTT AFB     CLOUDY    71  63  77 NE6       30.05F
PLATTSMOUTH    CLOUDY    70  64  81 E6        30.06F
WAHOO          CLOUDY    67  62  82 E3        30.07F
$$




USA.gov is the U.S. government's official web portal to all federal, state and local government web resources and services.